FENGYUN 1C DEB, 41822

Orbit data source: Space-Track

FENGYUN 1C DEB, 41822 is space debris in SSO originally from a launch on Mon, 10 May 1999 UTC launched from the Taiyaun Space Center, China (TSC). Fengyun 1C debris stems from the Chinese weather satellite Fengyun-1C, which was intentionally destroyed by a Chinese anti-satellite missile in 2007. This event dramatically increased the amount of space debris, with thousands of trackable fragments posing hazards to satellites and human spaceflight. The Fengyun 1C debris cloud has become a focal point in discussions about space sustainability and the need for international regulations to prevent the creation of new debris.

Loading next visibility...
Identifier
41822, 1999-025EXZ
Orbit
SSO
Country
Flag of CNCN / PRC
Related business
Manufacturer
Unknown
Mission
Spacecraft
Bus & Motor
Unknown
Mass
Unknown
Launch date (UTC)
1999-05-10 (27 years ago)
Launch vehicle
Unknown
Launch site
Taiyaun Space Center, China (TSC)
Object type
Payload
Rocket body
Debris
Shape & HBR
Unknown shape, 0.1 m
Radar Cross Section
Small (<0.1 m²)

Expand to show TLE details & history
Last TLE update: 15 hours ago

TLE from 15 hours ago
0 FENGYUN 1C DEB
1 41822U 99025EXZ 26208.17833823  .00002496  00000-0  10452-2 0  9990
2 41822  98.7181 278.2185 0051624 282.4468  77.0938 14.26219037505995
Epoch: 2026-07-27T04:16Z
TLE epoch observation values (Epoch: 2026-07-27T04:16:48.423Z)
Latitude
-0.00003°
Longitude
-90.8489°
Altitude
799.218 km
Speed
7.458 km/s
True Right ascension
18h 32m 52s
True Declination
0° 00' 00"
Sunlit
Object was in full shadow at epoch
Visualization orbit readout
Latitude
Unknown
Longitude
Unknown
Altitude
Unknown
Speed
Unknown
Apparent Right ascension
Unknown
Apparent Declination
Unknown
Sunlit
N/A
Visualization observer readout
Local Sidereal Time
09:05:13
Azimuth
Unknown
Elevation
Unknown
Doppler factor
Unknown
Orbital elements
Apogee altitude
838.612 km
Perigee altitude
764.483 km
Semi-major axis
7,179.685 km
Eccentricity
0.00516
Inclination
98.7181°
RAAN
278.2185°
Arg. of periapsis
282.4468°
True anomaly
77.67125°
Mean anomaly
77.0938°
Eccentric anomaly
77.38244°
Mean motion
3.56767 °/min
Orbital period
100.91 mins
BSTAR
0.0010452
Loading maneuver chart data...
Computing Atmospheric mass density...

Documentation

Showing up to 5 results
|